CFG2784 EDDH-LHBP

Flight info

Callsign CFG2784
Flight time N/A
Altitude 23000
Route RAMAR6G/33 RAMAR Z998 NUSGU/N0444F370 Z998 RATMO DCT BOLBO DCT OMELO DCT ODNEM DCT NIT/N0396F230 M748 ARFOX
Aircraft A320/M-SDE3FGHIRWY/LB1

Departure

Time 2026-05-04 19:37
Airport Hamburg Helmut Schmidt Airport (EDDH)

Arrival

Time N/A
Airport Budapest Liszt Ferenc International Airport (LHBP)
Time Latitude Longitude Altitude Speed Heading
2026-05-04 19:12 53.63282 10.00377 51 ft 0 kts 85°
2026-05-04 19:27 53.63280 10.00348 51 ft 2 kts 85°
2026-05-04 19:27 53.63279 10.00320 51 ft 2 kts 85°
2026-05-04 19:28 53.63278 10.00291 51 ft 2 kts 85°
2026-05-04 19:28 53.63277 10.00262 51 ft 2 kts 121°
2026-05-04 19:28 53.63289 10.00244 48 ft 2 kts 156°
2026-05-04 19:28 53.63299 10.00238 50 ft 0 kts 185°
2026-05-04 19:30 53.63284 10.00237 51 ft 8 kts 180°
2026-05-04 19:30 53.63227 10.00245 51 ft 8 kts 175°
2026-05-04 19:30 53.63178 10.00251 51 ft 7 kts 175°
2026-05-04 19:31 53.63137 10.00256 51 ft 6 kts 176°
2026-05-04 19:31 53.63101 10.00260 51 ft 5 kts 176°
2026-05-04 19:31 53.63073 10.00259 51 ft 4 kts 187°
2026-05-04 19:31 53.63053 10.00247 48 ft 3 kts 204°
2026-05-04 19:32 53.63038 10.00234 51 ft 2 kts 210°
2026-05-04 19:32 53.62992 10.00186 48 ft 9 kts 213°
2026-05-04 19:32 53.62954 10.00143 50 ft 6 kts 213°
2026-05-04 19:32 53.62945 10.00134 51 ft 0 kts 213°
2026-05-04 19:33 53.62918 10.00104 51 ft 6 kts 213°
2026-05-04 19:34 53.62870 10.00042 51 ft 9 kts 231°
2026-05-04 19:34 53.62842 9.99958 52 ft 6 kts 242°
2026-05-04 19:34 53.62841 9.99954 52 ft 0 kts 242°
2026-05-04 19:35 53.62831 9.99922 51 ft 10 kts 242°
2026-05-04 19:35 53.62816 9.99808 53 ft 10 kts 291°
2026-05-04 19:35 53.62869 9.99738 50 ft 0 kts 334°
2026-05-04 19:36 53.62927 9.99687 53 ft 37 kts 332°
2026-05-04 19:36 53.63381 9.99297 52 ft 105 kts 333°
2026-05-04 19:37 53.64203 9.98585 51 ft 157 kts 332°
2026-05-04 19:37 53.65205 9.97764 596 ft 159 kts 335°
2026-05-04 19:37 53.66197 9.96943 1175 ft 169 kts 333°
2026-05-04 19:37 53.67310 9.95975 1543 ft 191 kts 332°
2026-05-04 19:38 53.68571 9.94961 2044 ft 208 kts 342°
2026-05-04 19:38 53.70035 9.94671 2741 ft 216 kts 358°
2026-05-04 19:38 53.71554 9.94691 3533 ft 220 kts
2026-05-04 19:38 53.73051 9.95384 4246 ft 230 kts 28°
2026-05-04 19:39 53.74256 9.97256 4719 ft 252 kts 58°
2026-05-04 19:39 53.75090 10.00020 5133 ft 275 kts 64°
2026-05-04 19:39 53.75933 10.02996 5856 ft 284 kts 64°
2026-05-04 19:39 53.76795 10.06044 6700 ft 289 kts 64°
2026-05-04 19:40 53.77673 10.09130 7509 ft 293 kts 64°
2026-05-04 19:40 53.78571 10.12261 8340 ft 298 kts 64°
2026-05-04 19:40 53.79484 10.15432 9163 ft 302 kts 64°
2026-05-04 19:40 53.80414 10.18662 9771 ft 308 kts 64°
2026-05-04 19:41 53.81341 10.21892 9960 ft 311 kts 63°
2026-05-04 19:41 53.82324 10.25332 10171 ft 336 kts 64°
2026-05-04 19:41 53.83367 10.29029 10460 ft 356 kts 66°
2026-05-04 19:41 53.84102 10.33082 11061 ft 364 kts 80°
2026-05-04 19:42 53.84293 10.37381 11763 ft 368 kts 94°
2026-05-04 19:42 53.83918 10.41673 12472 ft 371 kts 105°
2026-05-04 19:42 53.83719 10.43112 12717 ft 372 kts 105°
2026-05-04 19:42 53.82734 10.50279 13886 ft 379 kts 104°
2026-05-04 19:43 53.82134 10.54659 14499 ft 383 kts 104°
2026-05-04 19:43 53.81533 10.59036 15109 ft 387 kts 105°
2026-05-04 19:43 53.80919 10.63493 15717 ft 391 kts 105°
2026-05-04 19:43 53.80223 10.67968 16314 ft 394 kts 111°
2026-05-04 19:44 53.79110 10.72209 16916 ft 395 kts 122°
2026-05-04 19:44 53.77660 10.76168 17528 ft 397 kts 125°
2026-05-04 19:44 53.76189 10.80104 18134 ft 401 kts 125°
2026-05-04 19:44 53.74675 10.84161 18693 ft 404 kts 125°
2026-05-04 19:45 53.73196 10.88139 19236 ft 406 kts 125°
2026-05-04 19:45 53.71521 10.91975 19797 ft 405 kts 135°
2026-05-04 19:45 53.69491 10.95252 20357 ft 403 kts 145°
2026-05-04 19:45 53.67155 10.97915 20924 ft 401 kts 153°
2026-05-04 19:46 53.64772 11.00341 21476 ft 404 kts 153°
2026-05-04 19:46 53.62363 11.02796 22020 ft 406 kts 153°
2026-05-04 19:46 53.59928 11.05278 22566 ft 408 kts 153°
2026-05-04 19:46 53.57491 11.07760 23060 ft 410 kts 153°
2026-05-04 19:47 53.55076 11.10218 23547 ft 412 kts 153°
2026-05-04 19:47 53.52609 11.12726 23952 ft 415 kts 154°
2026-05-04 19:47 53.50123 11.15244 24346 ft 417 kts 154°
2026-05-04 19:47 53.47630 11.17767 24736 ft 420 kts 154°
2026-05-04 19:48 53.45110 11.20317 25075 ft 422 kts 154°
2026-05-04 19:48 53.42584 11.22868 25428 ft 425 kts 154°
2026-05-04 19:48 53.40042 11.25427 25790 ft 427 kts 154°
2026-05-04 19:48 53.37517 11.27966 26139 ft 429 kts 155°
2026-05-04 19:49 53.34942 11.30552 26490 ft 432 kts 155°
2026-05-04 19:49 53.32356 11.33145 26845 ft 434 kts 155°
2026-05-04 19:49 53.29760 11.35746 27172 ft 436 kts 155°
2026-05-04 19:49 53.27170 11.38440 27475 ft 442 kts 150°
2026-05-04 19:50 53.24761 11.41752 27803 ft 451 kts 143°
2026-05-04 19:50 53.22480 11.45277 28119 ft 453 kts 143°
2026-05-04 19:50 53.20161 11.48849 28436 ft 455 kts 143°
2026-05-04 19:50 53.17831 11.52431 28721 ft 456 kts 142°
2026-05-04 19:51 53.15487 11.56026 29051 ft 457 kts 143°
2026-05-04 19:51 53.13135 11.59621 29345 ft 459 kts 143°
2026-05-04 19:51 53.10774 11.63225 29621 ft 461 kts 143°
2026-05-04 19:51 53.09206 11.65615 29799 ft 462 kts 143°
2026-05-04 19:52 53.06825 11.69235 30055 ft 464 kts 143°
2026-05-04 19:52 53.03660 11.74049 30337 ft 466 kts 143°
2026-05-04 19:52 53.02049 11.76497 30478 ft 466 kts 143°
2026-05-04 19:52 52.98940 11.81453 30848 ft 470 kts 136°
2026-05-04 19:53 52.96901 11.85712 31127 ft 473 kts 132°
2026-05-04 19:53 52.95554 11.88677 31322 ft 473 kts 132°
2026-05-04 19:53 52.93603 11.92962 31606 ft 472 kts 132°
2026-05-04 19:53 52.91620 11.97301 31901 ft 472 kts 132°
2026-05-04 19:54 52.89628 12.01636 32199 ft 471 kts 132°
2026-05-04 19:54 52.87638 12.05950 32496 ft 470 kts 132°
2026-05-04 19:54 52.85652 12.10256 32790 ft 470 kts 132°
2026-05-04 19:54 52.83673 12.14556 33080 ft 469 kts 132°
2026-05-04 19:55 52.81696 12.18856 33363 ft 469 kts 132°
2026-05-04 19:55 52.79717 12.23156 33603 ft 470 kts 132°
2026-05-04 19:55 52.77732 12.27458 33870 ft 470 kts 132°
2026-05-04 19:55 52.75744 12.31755 34124 ft 470 kts 132°
2026-05-04 19:56 52.73757 12.36036 34374 ft 469 kts 133°
2026-05-04 19:56 52.71624 12.40085 34625 ft 463 kts 141°
2026-05-04 19:56 52.69222 12.43456 34857 ft 456 kts 150°
2026-05-04 19:56 52.66555 12.46190 35089 ft 449 kts 159°
2026-05-04 19:57 52.63747 12.48465 35304 ft 447 kts 160°
2026-05-04 19:57 52.60946 12.50715 35534 ft 447 kts 159°
2026-05-04 19:57 52.58140 12.52971 35719 ft 447 kts 159°
2026-05-04 19:57 52.55341 12.55221 35910 ft 447 kts 159°
2026-05-04 19:58 52.52581 12.57441 36087 ft 447 kts 159°
2026-05-04 19:58 52.49769 12.59701 36277 ft 448 kts 159°
2026-05-04 19:58 52.46962 12.61956 36458 ft 447 kts 159°
2026-05-04 19:58 52.44165 12.64201 36640 ft 447 kts 159°
2026-05-04 19:59 52.41396 12.66421 36841 ft 447 kts 159°
2026-05-04 19:59 52.38601 12.68655 36946 ft 448 kts 159°
2026-05-04 19:59 52.35791 12.70893 36953 ft 448 kts 159°
2026-05-04 20:00 52.30178 12.75342 36944 ft 447 kts 159°
2026-05-04 20:00 52.24598 12.79761 36956 ft 447 kts 159°
2026-05-04 20:01 52.18996 12.84198 36956 ft 447 kts 159°
2026-05-04 20:01 52.13392 12.88623 36933 ft 447 kts 159°
2026-05-04 20:02 52.07827 12.92994 36933 ft 447 kts 159°
2026-05-04 20:02 52.02204 12.97412 36921 ft 448 kts 159°
2026-05-04 20:03 51.96590 13.01795 36928 ft 448 kts 159°
2026-05-04 20:03 51.90961 13.06164 36932 ft 448 kts 159°
2026-05-04 20:04 51.85370 13.10522 36941 ft 448 kts 159°
2026-05-04 20:04 51.79727 13.14906 36948 ft 449 kts 158°
2026-05-04 20:05 51.74193 13.19610 36925 ft 450 kts 154°
2026-05-04 20:05 51.68767 13.24679 36949 ft 449 kts 154°
2026-05-04 20:06 51.63390 13.29695 36958 ft 448 kts 154°
2026-05-04 20:06 51.57944 13.34624 36961 ft 448 kts 155°
2026-05-04 20:07 51.52524 13.39457 36966 ft 447 kts 155°
2026-05-04 20:07 51.47076 13.44312 36962 ft 447 kts 155°
2026-05-04 20:08 51.41634 13.49184 36968 ft 447 kts 155°
2026-05-04 20:08 51.36239 13.54004 36964 ft 447 kts 155°
2026-05-04 20:09 51.30801 13.58842 36966 ft 447 kts 155°
2026-05-04 20:09 51.25364 13.63657 36970 ft 447 kts 155°
2026-05-04 20:10 51.19919 13.68473 36967 ft 447 kts 155°
2026-05-04 20:10 51.14507 13.73246 36969 ft 446 kts 155°
2026-05-04 20:11 51.09064 13.78023 36975 ft 446 kts 155°
2026-05-04 20:11 51.03614 13.82801 36978 ft 446 kts 155°
2026-05-04 20:12 50.98185 13.87553 36973 ft 446 kts 155°
2026-05-04 20:12 50.92742 13.92298 36963 ft 446 kts 155°
2026-05-04 20:13 50.87292 13.97037 36964 ft 446 kts 155°
2026-05-04 20:13 50.82239 14.02745 36973 ft 453 kts 138°
2026-05-04 20:14 50.77911 14.10067 36971 ft 455 kts 136°
2026-05-04 20:14 50.73617 14.17324 36947 ft 455 kts 136°
2026-05-04 20:15 50.69267 14.24652 36947 ft 455 kts 136°
2026-05-04 20:15 50.64932 14.31949 36953 ft 455 kts 136°
2026-05-04 20:16 50.60612 14.39182 36957 ft 455 kts 136°
2026-05-04 20:16 50.56266 14.46451 36953 ft 455 kts 136°
2026-05-04 20:17 50.51912 14.53716 36938 ft 455 kts 136°
2026-05-04 20:17 50.47586 14.60907 36935 ft 455 kts 136°
2026-05-04 20:18 50.43213 14.68145 36939 ft 455 kts 136°
2026-05-04 20:18 50.38845 14.75365 36927 ft 455 kts 136°
2026-05-04 20:19 50.34483 14.82555 36934 ft 455 kts 137°
2026-05-04 20:19 50.30116 14.89730 36925 ft 455 kts 136°
2026-05-04 20:20 50.25740 14.96905 36926 ft 456 kts 136°
2026-05-04 20:20 50.21383 15.04029 36928 ft 456 kts 136°
2026-05-04 20:21 50.16987 15.11191 36932 ft 457 kts 137°
2026-05-04 20:21 50.10376 15.21913 36935 ft 457 kts 137°
2026-05-04 20:22 50.05966 15.29054 36927 ft 457 kts 136°
2026-05-04 20:22 50.01543 15.36185 36929 ft 457 kts 136°
2026-05-04 20:23 49.97143 15.43254 36933 ft 457 kts 136°
2026-05-04 20:23 49.92715 15.50354 36937 ft 458 kts 136°
2026-05-04 20:24 49.88264 15.57488 36940 ft 458 kts 136°
2026-05-04 20:24 49.83849 15.64529 36937 ft 458 kts 136°
2026-05-04 20:25 49.79398 15.71599 36928 ft 458 kts 136°
2026-05-04 20:25 49.74942 15.78670 36946 ft 458 kts 136°
2026-05-04 20:26 49.70487 15.85726 36957 ft 458 kts 136°
2026-05-04 20:26 49.66052 15.92732 36966 ft 458 kts 136°
2026-05-04 20:27 49.61588 15.99745 36959 ft 458 kts 136°
2026-05-04 20:27 49.57105 16.06766 36966 ft 458 kts 136°
2026-05-04 20:28 49.52657 16.13729 36962 ft 458 kts 136°
2026-05-04 20:28 49.48176 16.20727 36962 ft 458 kts 136°
2026-05-04 20:29 49.43694 16.27697 36960 ft 457 kts 137°
2026-05-04 20:29 49.39229 16.34622 36960 ft 458 kts 136°
2026-05-04 20:30 49.34734 16.41569 36969 ft 458 kts 136°
2026-05-04 20:30 49.30255 16.48474 36972 ft 459 kts 136°
2026-05-04 20:31 49.25739 16.55425 36979 ft 459 kts 137°
2026-05-04 20:31 49.21230 16.62358 36964 ft 459 kts 136°
2026-05-04 20:32 49.16710 16.69270 36974 ft 459 kts 136°
2026-05-04 20:32 49.12224 16.76105 36977 ft 459 kts 136°
2026-05-04 20:33 49.07701 16.82985 36978 ft 459 kts 136°
2026-05-04 20:33 49.03181 16.89847 36978 ft 459 kts 137°
2026-05-04 20:34 48.98649 16.96715 36977 ft 459 kts 136°
2026-05-04 20:34 48.94880 17.02411 36969 ft 459 kts 136°
2026-05-04 20:35 48.90338 17.09252 36974 ft 459 kts 136°
2026-05-04 20:35 48.85809 17.16049 36974 ft 459 kts 137°
2026-05-04 20:36 48.81318 17.22972 36991 ft 460 kts 135°
2026-05-04 20:36 48.76935 17.30040 36988 ft 460 kts 134°
2026-05-04 20:37 48.72541 17.37116 36987 ft 460 kts 135°
2026-05-04 20:37 48.68122 17.44111 36998 ft 460 kts 135°
2026-05-04 20:38 48.63684 17.51086 36995 ft 460 kts 135°
2026-05-04 20:38 48.59270 17.58016 36998 ft 460 kts 135°
2026-05-04 20:39 48.54829 17.64985 36996 ft 460 kts 135°
2026-05-04 20:39 48.50388 17.71947 37000 ft 460 kts 135°
2026-05-04 20:40 48.45942 17.78886 37009 ft 460 kts 135°
2026-05-04 20:40 48.41516 17.85768 37015 ft 460 kts 135°
2026-05-04 20:41 48.37058 17.92689 36640 ft 459 kts 134°
2026-05-04 20:41 48.34837 17.96131 36206 ft 458 kts 134°
2026-05-04 20:41 48.32606 17.99576 35954 ft 460 kts 135°
2026-05-04 20:42 48.30395 18.02988 35639 ft 461 kts 135°
2026-05-04 20:42 48.28154 18.06461 34708 ft 466 kts 134°
2026-05-04 20:42 48.25942 18.10028 33867 ft 468 kts 132°
2026-05-04 20:42 48.23760 18.13673 32849 ft 471 kts 131°
2026-05-04 20:43 48.21588 18.17363 31893 ft 472 kts 131°
2026-05-04 20:43 48.19417 18.21059 31147 ft 469 kts 131°
2026-05-04 20:43 48.17270 18.24694 30582 ft 463 kts 131°
2026-05-04 20:43 48.15134 18.28273 29926 ft 459 kts 132°
2026-05-04 20:44 48.13006 18.31805 29269 ft 453 kts 132°
2026-05-04 20:44 48.10906 18.35272 28671 ft 447 kts 132°
2026-05-04 20:44 48.08826 18.38693 28080 ft 442 kts 132°
2026-05-04 20:44 48.06763 18.42087 27486 ft 438 kts 132°
2026-05-04 20:45 48.04725 18.45443 26902 ft 433 kts 132°
2026-05-04 20:45 48.02711 18.48753 26329 ft 429 kts 132°
2026-05-04 20:45 48.00707 18.52044 25766 ft 425 kts 132°
2026-05-04 20:45 47.98794 18.55381 25207 ft 421 kts 126°
2026-05-04 20:46 47.97263 18.59096 24674 ft 418 kts 116°
2026-05-04 20:46 47.96180 18.63092 24164 ft 414 kts 108°
2026-05-04 20:46 47.95284 18.67155 23641 ft 411 kts 108°
2026-05-04 20:46 47.94388 18.71181 23103 ft 407 kts 108°
2026-05-04 20:47 47.93497 18.75156 22621 ft 402 kts 109°
2026-05-04 20:47 47.92613 18.79081 22161 ft 397 kts 109°
2026-05-04 20:47 47.91735 18.82969 21693 ft 393 kts 109°
2026-05-04 20:47 47.90865 18.86813 21226 ft 390 kts 109°
2026-05-04 20:48 47.90002 18.90620 20768 ft 386 kts 109°
2026-05-04 20:48 47.89159 18.94352 20287 ft 383 kts 110°
2026-05-04 20:48 47.88092 18.97972 19823 ft 379 kts 120°
2026-05-04 20:48 47.86612 19.01184 19341 ft 375 kts 131°
2026-05-04 20:49 47.84846 19.04040 18861 ft 373 kts 134°
2026-05-04 20:49 47.83081 19.06849 18380 ft 371 kts 134°
2026-05-04 20:49 47.81321 19.09660 17856 ft 369 kts 134°
2026-05-04 20:49 47.79582 19.12447 17377 ft 366 kts 134°
2026-05-04 20:50 47.77861 19.15208 16902 ft 363 kts 134°
2026-05-04 20:50 47.76150 19.17951 16433 ft 360 kts 134°
2026-05-04 20:50 47.74467 19.20692 15963 ft 358 kts 133°
2026-05-04 20:50 47.72813 19.23449 15505 ft 356 kts 133°
2026-05-04 20:51 47.71196 19.26168 15033 ft 354 kts 132°
2026-05-04 20:51 47.69573 19.28902 14589 ft 352 kts 133°
2026-05-04 20:51 47.67950 19.31630 14126 ft 350 kts 133°
2026-05-04 20:51 47.66327 19.34322 13672 ft 348 kts 134°
2026-05-04 20:52 47.64726 19.36924 13543 ft 335 kts 134°
2026-05-04 20:52 47.62971 19.39043 13406 ft 320 kts 155°
2026-05-04 20:52 47.60872 19.39802 13274 ft 306 kts 181°
2026-05-04 20:52 47.58843 19.39156 13030 ft 298 kts 206°
2026-05-04 20:53 47.57182 19.37350 12636 ft 298 kts 222°
2026-05-04 20:53 47.56169 19.35975 12385 ft 297 kts 222°